[[{"header":{"parameterUnit":"m.s-1","parameterCategory":1,"la1":30.2991,"la2":30.254,"lo1":-89.0895,"lo2":-89.0444,"dy":0.0017,"dx":0.0017,"nx":28,"ny":28,"refTime":"2023-07-29T21:00:00:Z","depth":0,"parameterNumber":2,"parameterNumberName":"U-component_of_WINDS"},"data":[0,0,0,0,0,0,0,0,0,0,0,0,0,0,0,0,0,0,0,0,0,0,0,0,0,0,0,0,0,0,0,0,0,0,0,0,0,0,0,0,0,0,0,0,0,0,0,0,0,0,0,0,0,0,0,0,0,0,3.3692,3.3693,0,3.3733,3.3733,3.3734,3.3665,3.3663,3.3661,3.3659,3.3704,3.3707,3.371,0,0,0,0,0,0,0,0,0,0,0,0,0,3.356,3.3563,3.3692,3.3693,3.3693,3.3733,3.3733,3.3734,3.3666,3.3663,3.366,3.3658,3.3703,3.3707,3.3711,0,0,0,0,0,0,0,0,0,0,0,0,0,3.3611,3.3564,3.3692,3.3664,3.3662,3.3733,3.3733,3.3734,3.3667,3.3663,3.3659,3.3656,3.3701,3.3706,3.3711,3.3813,0,0,3.3727,3.3729,0,0,0,0,0,0,0,0,3.3608,3.3616,3.3668,3.3666,3.3664,3.369,3.3703,3.3761,3.3667,3.3665,3.3659,3.3654,3.3702,3.3707,3.3723,3.3815,3.3817,3.3727,3.373,3.3733,3.3734,0,0,0,0,0,0,0,3.3605,3.3614,3.3708,3.3668,3.3666,3.3651,3.3654,3.3714,3.3703,3.3665,3.366,3.3665,3.3701,3.3718,3.3723,3.3818,3.3727,3.3732,3.3735,3.3737,3.3999,3.4002,0,0,0,0,0,0,3.3604,3.3611,3.3707,3.371,3.3627,3.3656,3.366,3.3686,3.3702,3.3701,3.3668,3.3662,3.3711,3.3717,3.3725,3.3847,3.3732,3.3737,3.374,3.3995,3.3999,3.4004,0,0,0,0,0,0,3.3601,3.3613,3.3705,3.3659,3.367,3.3662,3.3692,3.3688,3.3705,3.3705,3.3703,3.3688,3.3708,3.3717,3.3792,3.3847,3.374,3.3744,3.399,3.3996,3.4002,3.4091,0,0,0,0,0,0,3.3598,3.3613,3.365,3.366,3.3672,3.3771,3.3695,3.3691,3.3714,3.3706,3.3722,3.3722,3.3706,3.3785,3.3797,3.3852,3.3748,3.3985,3.3993,3.4,3.4083,3.4099,3.4113,0,0,0,0,0,3.3593,3.3673,3.3652,3.3664,3.3719,3.3774,3.3781,3.3761,3.3718,3.3757,3.3757,3.3721,3.3839,3.3793,3.3806,3.3864,3.3982,3.3991,3.3999,3.4076,3.4096,3.4112,0,0,0,0,0,0,3.367,3.3674,3.3651,3.3736,3.3755,3.3762,3.381,3.3782,3.3814,3.3806,3.378,3.3785,3.3865,3.3872,3.382,3.3965,3.3903,3.3915,3.3957,3.3976,3.3991,3.3988,3.3752,0,0,0,0,0,3.3697,3.374,3.3742,3.3817,3.3828,3.3818,3.3841,3.3824,3.3843,3.3851,3.3857,3.3878,3.392,3.3948,3.3986,3.4083,3.4087,3.413,3.4145,3.4157,3.4168,3.4223,3.4242,3.4033,3.4033,3.4032,0,0,3.3753,3.376,3.3789,3.3833,3.3846,3.3893,3.3825,3.3877,3.3913,3.3859,3.393,3.3936,3.3958,3.4045,3.4083,3.4053,3.4227,3.4168,3.4178,3.4182,3.4234,3.4254,3.4271,3.4039,3.4038,3.4037,0,0,3.3879,3.3888,3.3953,3.3968,3.3988,3.3981,3.3997,3.4009,3.401,3.4081,3.4042,3.4085,3.4157,3.4175,3.4194,3.433,3.43,3.4344,3.4422,3.4476,3.4492,3.4507,3.4558,3.4576,3.4354,3.4355,3.4355,0,3.3946,3.4015,3.399,3.4046,3.4068,3.4021,3.4088,3.4104,3.4136,3.4153,3.4118,3.421,3.4221,3.4313,3.4346,3.4362,3.4382,3.4342,3.4492,3.4506,3.4519,3.4568,3.4587,3.436,3.4359,3.4359,3.4358,0,3.4098,3.4147,3.4197,3.4229,3.4256,3.4318,3.4304,3.4335,3.4316,3.4314,3.4388,3.44,3.4442,3.4462,3.4444,3.4552,3.4533,3.4495,3.4434,3.4545,3.459,3.4608,3.4368,3.4366,3.4364,3.4363,0,0,3.4274,3.4293,3.4312,3.4327,3.4347,3.4385,3.4445,3.4485,3.4513,3.4538,3.4589,3.4652,3.4618,3.464,3.4624,3.467,3.4781,3.4627,3.4628,3.4657,3.4905,3.4934,3.4956,3.476,3.4764,3.4766,3.4904,0,3.4401,3.4504,3.4485,3.4586,3.4633,3.459,3.4643,3.4662,3.4662,3.4702,3.4702,3.4748,3.4698,3.4712,3.4756,3.4758,3.4831,3.4748,3.4811,3.4813,3.4808,3.4979,3.501,3.5139,3.4921,3.4924,3.4926,0,3.4564,3.4595,3.4701,3.4715,3.4734,3.4782,3.4818,3.4857,3.4879,3.4875,3.49,3.4876,3.4939,3.4875,3.4963,3.4907,3.4932,3.4937,3.4942,3.4948,3.4877,3.4993,3.5179,3.52,3.4953,3.4951,3.4949,0,3.4685,3.4752,3.4825,3.4839,3.4858,3.4893,3.4902,3.4921,3.4947,3.4979,3.4996,3.5036,3.5058,3.509,3.5078,3.5032,3.5169,3.5104,3.517,3.5171,3.5202,3.52,3.5397,3.5215,3.5214,3.5214,3.5214,0,3.483,3.4898,3.488,3.4925,3.5,3.4978,3.5053,3.5058,3.5075,3.5122,3.5087,3.5132,3.5112,3.5157,3.5148,3.5223,3.5233,3.5234,3.5231,3.5238,3.5238,3.5255,3.5246,3.5219,3.5218,3.5217,3.5216,0,3.4978,3.4969,3.5046,3.5057,3.5062,3.5117,3.5128,3.5171,3.5168,3.5228,3.5241,3.5237,3.5288,3.5279,3.5335,3.5329,3.5424,3.5409,3.5417,3.5414,3.5482,3.5476,3.5698,3.5727,3.5524,3.5526,3.5527,0,3.5073,3.5123,3.5141,3.5169,3.5182,3.5228,3.5254,3.5235,3.5265,3.5295,3.5336,3.5383,3.542,3.5503,3.5507,3.555,3.5538,3.5612,3.5544,3.5551,3.5542,3.554,3.5546,3.5627,3.5629,3.5631,3.5632,0,3.5243,3.5236,3.5275,3.5313,3.5346,3.5376,3.5402,3.5428,3.5411,3.5447,3.5498,3.5526,3.5584,3.5633,3.5674,3.5685,3.5658,3.5654,3.5672,3.568,3.5684,3.5685,3.5456,3.5649,3.5647,3.5646,3.5645,3.5644,3.5368,3.5412,3.5432,3.5478,3.5495,3.5521,3.5563,3.5566,3.5608,3.5653,3.5639,3.5699,3.5722,3.5774,3.579,3.5837,3.581,3.5835,3.5842,3.585,3.5859,3.5675,3.5844,3.5844,3.5843,3.5843,3.5843,0,3.5538,3.5549,3.5591,3.5629,3.5666,3.5635,3.5663,3.5696,3.5748,3.5772,3.5809,3.5869,3.5917,3.5925,3.597,3.6007,3.5995,3.602,3.6018,3.6022,3.5879,3.586,3.6028,3.6028,3.6028,3.6028,3.6028,3.6028,3.5631,3.5705,3.5701,3.5785,3.5795,3.5852,3.5871,3.5896,3.5915,3.5983,3.6022,3.6027,3.6045,3.6092,3.6135,3.6136,3.6156,3.6185,3.6182,3.605,3.6031,3.6014,3.5996,3.6189,3.6189,3.632,3.6322,3.6323]},{"header":{"parameterUnit":"m.s-1","parameterCategory":1,"la1":30.2991,"la2":30.254,"lo1":-89.0895,"lo2":-89.0444,"dy":0.0017,"dx":0.0017,"nx":28,"ny":28,"refTime":"2023-07-29T21:00:00:Z","depth":0,"parameterNumber":3,"parameterNumberName":"V-component_of_WINDS"},"data":[0,0,0,0,0,0,0,0,0,0,0,0,0,0,0,0,0,0,0,0,0,0,0,0,0,0,0,0,0,0,0,0,0,0,0,0,0,0,0,0,0,0,0,0,0,0,0,0,0,0,0,0,0,0,0,0,0,0,-0.4895,-0.4895,0,-0.488,-0.488,-0.488,-0.4876,-0.4876,-0.4876,-0.4876,-0.486,-0.4859,-0.4859,0,0,0,0,0,0,0,0,0,0,0,0,0,-0.4921,-0.492,-0.4895,-0.4895,-0.4895,-0.488,-0.488,-0.488,-0.4876,-0.4876,-0.4876,-0.4876,-0.486,-0.4859,-0.4859,0,0,0,0,0,0,0,0,0,0,0,0,0,-0.4908,-0.492,-0.4895,-0.4891,-0.489,-0.488,-0.488,-0.4879,-0.4876,-0.4876,-0.4876,-0.4876,-0.486,-0.4859,-0.4858,-0.4851,0,0,-0.4856,-0.4856,0,0,0,0,0,0,0,0,-0.4909,-0.4907,-0.4892,-0.4891,-0.4891,-0.488,-0.4883,-0.487,-0.4876,-0.4881,-0.4876,-0.4876,-0.4866,-0.4865,-0.4862,-0.485,-0.4849,-0.4856,-0.4856,-0.4855,-0.4855,0,0,0,0,0,0,0,-0.4909,-0.4908,-0.4889,-0.4891,-0.4891,-0.489,-0.4888,-0.488,-0.4873,-0.4881,-0.488,-0.4879,-0.4866,-0.4863,-0.4861,-0.4849,-0.4856,-0.4855,-0.4855,-0.4855,-0.4833,-0.4832,0,0,0,0,0,0,-0.4911,-0.4908,-0.4889,-0.4888,-0.49,-0.4889,-0.4887,-0.4883,-0.4873,-0.4872,-0.4879,-0.4879,-0.4864,-0.4862,-0.4861,-0.4852,-0.4855,-0.4855,-0.4854,-0.4833,-0.4832,-0.4832,0,0,0,0,0,0,-0.4912,-0.4909,-0.489,-0.4898,-0.4896,-0.4889,-0.4884,-0.4883,-0.4879,-0.4872,-0.487,-0.4876,-0.4864,-0.4862,-0.4854,-0.4852,-0.4854,-0.4853,-0.4833,-0.4833,-0.4832,-0.4835,0,0,0,0,0,0,-0.4912,-0.491,-0.4906,-0.4898,-0.4895,-0.4883,-0.4884,-0.4882,-0.4878,-0.4878,-0.4869,-0.4868,-0.4864,-0.4855,-0.4853,-0.4851,-0.4853,-0.4833,-0.4833,-0.4832,-0.4835,-0.4835,-0.4834,0,0,0,0,0,-0.4913,-0.4907,-0.4906,-0.4904,-0.4891,-0.4883,-0.4881,-0.4877,-0.4878,-0.4875,-0.487,-0.4868,-0.4852,-0.4854,-0.4852,-0.4849,-0.4833,-0.4833,-0.4832,-0.4835,-0.4835,-0.4834,0,0,0,0,0,0,-0.4914,-0.4906,-0.4905,-0.4896,-0.489,-0.4882,-0.4878,-0.4877,-0.487,-0.4871,-0.4865,-0.4863,-0.4856,-0.4852,-0.4854,-0.4842,-0.4843,-0.4842,-0.4845,-0.4845,-0.4845,-0.4846,-0.4852,0,0,0,0,0,-0.4914,-0.4908,-0.4901,-0.4893,-0.4891,-0.4885,-0.4881,-0.4879,-0.4873,-0.487,-0.4865,-0.4859,-0.4853,-0.4849,-0.4842,-0.4834,-0.4833,-0.4832,-0.4831,-0.4831,-0.4831,-0.4828,-0.4827,-0.4831,-0.4831,-0.4831,0,0,-0.4912,-0.4906,-0.4903,-0.4893,-0.4889,-0.4883,-0.4883,-0.4876,-0.4872,-0.4869,-0.4861,-0.4858,-0.4851,-0.4843,-0.4839,-0.4839,-0.4829,-0.4831,-0.4831,-0.483,-0.4827,-0.4827,-0.4827,-0.4831,-0.4831,-0.4831,0,0,-0.4905,-0.4901,-0.4895,-0.4891,-0.4884,-0.4881,-0.4879,-0.4872,-0.487,-0.4862,-0.486,-0.4855,-0.4844,-0.484,-0.4836,-0.4831,-0.4829,-0.4829,-0.4828,-0.4825,-0.4825,-0.4825,-0.4824,-0.4823,-0.4829,-0.4829,-0.4829,0,-0.4904,-0.4895,-0.4892,-0.4886,-0.4882,-0.488,-0.4874,-0.487,-0.4862,-0.486,-0.486,-0.4848,-0.4843,-0.4835,-0.4834,-0.4831,-0.483,-0.483,-0.4825,-0.4825,-0.4825,-0.4824,-0.4823,-0.4829,-0.4829,-0.4829,-0.4829,0,-0.4894,-0.4888,-0.4884,-0.4877,-0.4873,-0.4868,-0.4864,-0.486,-0.4859,-0.4855,-0.4849,-0.4843,-0.4836,-0.4834,-0.4832,-0.4827,-0.4827,-0.4826,-0.4827,-0.4824,-0.4823,-0.4823,-0.4829,-0.4829,-0.4829,-0.4829,0,0,-0.4887,-0.4879,-0.4878,-0.4876,-0.4869,-0.4865,-0.486,-0.4854,-0.4851,-0.4846,-0.4842,-0.4834,-0.4834,-0.483,-0.4827,-0.4825,-0.4822,-0.4825,-0.4825,-0.4825,-0.4817,-0.4818,-0.4818,-0.4822,-0.4821,-0.4821,-0.4818,0,-0.488,-0.4871,-0.4869,-0.4861,-0.4856,-0.4855,-0.4851,-0.4847,-0.4844,-0.484,-0.4837,-0.4832,-0.4831,-0.4829,-0.4827,-0.4823,-0.4821,-0.4823,-0.4818,-0.4818,-0.482,-0.4817,-0.4817,-0.4815,-0.4818,-0.4818,-0.4818,0,-0.4871,-0.4867,-0.4859,-0.4855,-0.4853,-0.4849,-0.4844,-0.484,-0.4836,-0.4834,-0.4831,-0.4829,-0.4825,-0.4826,-0.4819,-0.4821,-0.4819,-0.4817,-0.4817,-0.4817,-0.4818,-0.4817,-0.4813,-0.4813,-0.4817,-0.4817,-0.4817,0,-0.4867,-0.486,-0.4854,-0.4852,-0.4847,-0.4845,-0.4842,-0.4838,-0.4836,-0.4832,-0.483,-0.4825,-0.4823,-0.482,-0.4817,-0.4818,-0.4812,-0.4812,-0.4811,-0.4811,-0.4809,-0.4809,-0.4806,-0.4807,-0.4807,-0.4807,-0.4807,0,-0.486,-0.4856,-0.4853,-0.485,-0.4845,-0.4843,-0.4838,-0.4836,-0.4833,-0.4829,-0.4828,-0.4825,-0.4821,-0.4818,-0.4816,-0.4812,-0.4811,-0.481,-0.4809,-0.481,-0.481,-0.4808,-0.4809,-0.4807,-0.4807,-0.4807,-0.4807,0,-0.4855,-0.4853,-0.4847,-0.4844,-0.4843,-0.4839,-0.4836,-0.4833,-0.4832,-0.4827,-0.4826,-0.4823,-0.482,-0.4817,-0.4812,-0.481,-0.4806,-0.4806,-0.4808,-0.4808,-0.4807,-0.4807,-0.4802,-0.4802,-0.4803,-0.4803,-0.4803,0,-0.4851,-0.4847,-0.4844,-0.4842,-0.484,-0.4836,-0.4834,-0.4832,-0.483,-0.4826,-0.4824,-0.4821,-0.4817,-0.4812,-0.4809,-0.4806,-0.4805,-0.4804,-0.4804,-0.4806,-0.4806,-0.4806,-0.4806,-0.4804,-0.4804,-0.4804,-0.4804,0,-0.4844,-0.4843,-0.484,-0.4837,-0.4835,-0.4832,-0.4829,-0.4828,-0.4826,-0.4823,-0.482,-0.4818,-0.4814,-0.481,-0.4807,-0.4805,-0.4804,-0.4804,-0.4803,-0.4804,-0.4806,-0.4805,-0.4808,-0.4803,-0.4803,-0.4803,-0.4803,-0.4803,-0.4839,-0.4837,-0.4834,-0.4831,-0.483,-0.4828,-0.4825,-0.4824,-0.4821,-0.4818,-0.4817,-0.4814,-0.4811,-0.4807,-0.4805,-0.4803,-0.4803,-0.4802,-0.4802,-0.4802,-0.4802,-0.4806,-0.4802,-0.4802,-0.4802,-0.4802,-0.4802,0,-0.4833,-0.4832,-0.4829,-0.4826,-0.4824,-0.4824,-0.4822,-0.482,-0.4817,-0.4815,-0.4813,-0.481,-0.4807,-0.4805,-0.4803,-0.4802,-0.4801,-0.4801,-0.4801,-0.4801,-0.4802,-0.4803,-0.4801,-0.4801,-0.4801,-0.4801,-0.4801,-0.4801,-0.4829,-0.4825,-0.4825,-0.4821,-0.482,-0.4817,-0.4816,-0.4815,-0.4813,-0.481,-0.4808,-0.4807,-0.4805,-0.4803,-0.4801,-0.4801,-0.48,-0.48,-0.4799,-0.48,-0.4801,-0.4801,-0.4802,-0.48,-0.48,-0.4798,-0.4798,-0.4798]}]]